Other Public Products
Issued by NWS Grand Forks, ND

Home | Current Version | Previous Version | Graphics & Text | Print | Product List | Glossary On
Versions: 1 2 3 4 5 6 7 8 9 10 11 12 13 14 15 16 17 18 19 20 21 22 23 24 25 26 27 28 29 30 31 32 33 34 35 36 37 38 39 40 41 42 43 44 45 46 47 48 49 50
000
FPUS83 KFGF 210731
OPUFGF
PRAIRIE TO PINES WEATHER ROUNDUP
NATIONAL WEATHER SERVICE EASTERN NORTH DAKOTA/GRAND FORKS ND
100 AM CST SUN JAN 21 2018

 **SATELLITE DATA USED TO AUGMENT SKY COVER AT AUTOMATED STATIONS**
 *****  WEATHER ACROSS EASTERN NORTH DAKOTA  *****

CITY           SKY/WX    TMP DP  RH WIND       PRES   REMARKS
GRAND FORKS    FAIR      20  18  92 W6        29.95R WCI  12
GRND FORKS AFB FAIR      24  21  87 NW5       29.95R WCI  18
GRND FORKS NWS NOT AVBL
BUXTON           N/A     23  23  99 W5          N/A  WCI  17
DEVILS LAKE    FAIR      19  17  92 W8        29.96R WCI   9
FARGO          FAIR      28  26  92 W6        29.96R WCI  22
WAHPETON ARPT  PTSUNNY   30  27  86 W6        29.97S WCI  24
$$

 *****  WEATHER ACROSS CENTRAL AND WESTERN NORTH DAKOTA  *****

CITY           SKY/WX    TMP DP  RH WIND       PRES   REMARKS
JAMESTOWN      FAIR      27  23  85 W5        29.95R WCI  22
BISMARCK       FAIR      24  20  84 SW5       29.99R WCI  18
MINOT          FAIR      23  17  78 W7        29.95S WCI  15
MINOT AFB      FAIR      17  13  87 W8        29.94S WCI   6
GARRISON         N/A     18  15  88 CALM      29.96R
WILLISTON      FAIR      17  13  84 CALM      29.97R
DICKINSON      FAIR      22  17  81 W12       29.94S WCI  10
HETTINGER      FAIR      23  19  85 NW6       29.98F WCI  16
$$

 *****  OTHER OBSERVATIONS NORTHEAST NORTH DAKOTA  *****

CITY           SKY/WX    TMP DP  RH WIND       PRES   REMARKS
WALHALLA       FAIR      23  25 100 NW6       29.96R WCI  16
LANGDON        NOT AVBL
CAVALIER         N/A     27  23  86 NW10      29.95R WCI  17
GRAFTON        NOT AVBL
CANDO          FAIR      18  18 100 NW10      29.96S WCI   6
FORT TOTTEN      N/A     21  18  89 CALM      29.95S
ROLLA          FAIR      21  21 100 W6        29.94R WCI  14
RUGBY          NOT AVBL
 ***** THE ABOVE OBSERVATIONS ARE NON NWS ARE NOT QUALITY
        CONTROLLED AND MAY MIS-REPORT RAIN FOR SNOW...
$$

 *****  OTHER OBSERVATIONS SOUTHEAST NORTH DAKOTA *****

CITY           SKY/WX    TMP DP  RH WIND       PRES   REMARKS
COOPERSTOWN    FAIR      21  21 100 W9        29.96R WCI  11
VALLEY CITY    NOT AVBL
OAKES            N/A     30  30 100 NW6       29.96F WCI  24
GWINNER          N/A     32  28  86 W7        29.96S
SHEYENNE NWR     N/A     29  29 100 W2        29.95S
BUFFALO          N/A     28  24  86 SE5         N/A  WCI  23
WYNDMERE       NOT AVBL
 ***** THE ABOVE OBSERVATIONS ARE NON NWS ARE NOT QUALITY
       CONTROLLED AND MAY MIS-REPORT RAIN FOR SNOW...
$$

  *****  WEATHER ACROSS NORTHERN MINNESOTA  *****

CITY           SKY/WX    TMP DP  RH WIND       PRES   REMARKS
FLAG ISLAND    FAIR      16  16 100 SE6       29.89R WCI   7
WARROAD        FAIR      19  16  86 SW3       29.92R
ROSEAU         FAIR      19  16  86 SW7       29.92R WCI  10
HALLOCK        FOG       12   9  85 CALM      29.94R VSB 1/2
THF RVR FALLS  FAIR      20  19  96 CALM      29.95R
HALSTAD        NOT AVBL
FOSSTON        FOG       16  16 100 S3        29.95R VSB 1/4
BAUDETTE       FAIR      19  18  95 SW3       29.90R
WASKISH        FAIR      18  18 100 W3        29.92S
CROOKSTON      FAIR      21  21 100 W5        29.96R WCI  15
$$
  *****  WEATHER ACROSS CENTRAL AND WEST MINNESOTA  *****

CITY           SKY/WX    TMP DP  RH WIND       PRES   REMARKS
BEMIDJI        FAIR      17  15  93 W3        29.92R
PARK RAPIDS    FAIR      20  16  84 S5        29.92S WCI  13
WADENA         FAIR      27  27 100 CALM      29.94R
DETROIT LAKES  FAIR      25  23  93 CALM      29.95R
MOORHEAD       FAIR      28  25  86 SW3       29.97S
FERGUS FALLS   FAIR      30  30 100 CALM      29.96R
ELBOW LAKE     FAIR      30  29  95 NW3       29.97R
MORRIS MN      CLOUDY    34  30  86 NW8       29.95S
STAPLES        FAIR      27  25  93 CALM      29.94S
WHEATON        NOT AVBL
$$
  *****  WEATHER ELSEWHERE ACROSS MINNESOTA  *****

CITY           SKY/WX    TMP DP  RH WIND       PRES   REMARKS
DULUTH         FAIR      27  24  89 NW5       29.91R WCI  22
INTRNTL FALLS  FAIR      23  20  88 SW5       29.90R WCI  17
ELY            FOG       18  16  93 CALM      29.90  VSB 3/4
CLOQUET        FAIR      28  25  86 W5        29.93R WCI  23
BRAINERD       FAIR      28  24  85 CALM      29.95R
HIBBING        FOG       13  10  88 CALM      29.90S VSB 1/4
ALEXANDRIA     CLOUDY    32  28  85 W3        29.95S
SAINT CLOUD    CLOUDY    33  30  88 N5        29.95S
MINNEAPOLIS    CLOUDY    35  32  88 N3        29.95S
$$

  *****  WEATHER ACROSS SOUTH DAKOTA  *****

CITY           SKY/WX    TMP DP  RH WIND       PRES   REMARKS
SIOUX FALLS    MOCLDY    33  29  85 N6        29.93S
BROOKINGS      CLOUDY    34  30  85 N6        29.94
WATERTOWN      CLOUDY    34  30  85 CALM      29.94S
HURON          CLOUDY    34  32  92 N6        29.96S
SISSETON         N/A     36  28  73 NW7       29.96S
ABERDEEN       CLOUDY    32  29  88 NW5       29.97F
MITCHELL       CLOUDY    35  33  92 N5        29.96F
PIERRE         LGT RAIN  34  33  96 NW5       29.98F
MOBRIDGE       MOCLDY    34  27  75 NW7       29.94F
RAPID CITY     CLOUDY    29  27  92 NW8       29.97F WCI  21
$$

  *****  SOME WEATHER IN NEARBY STATES *****

CITY           SKY/WX    TMP DP  RH WIND       PRES   REMARKS
GLASGOW MT     FAIR      19  15  84 S5        29.95R WCI  12
GREAT FALLS MT FAIR      26  18  71 SW12      29.96R WCI  16
CHEYENNE WY    CLOUDY    24  24 100 E8        29.79S FOG     WCI  15
SCOTTSBLUFF NE CLOUDY    31  30  96 NE13      29.89S WCI  21
OMAHA NE       CLOUDY    38  35  89 N6        29.85F
DES MOINES IA  CLOUDY    40  36  86 E8        29.88F
DAVENPORT IA   CLOUDY    40  36  86 SE5       29.95S FOG
CHICAGO IL     CLOUDY    39  35  86 S3        29.97F
EAU CLAIRE WI  CLOUDY    27  27 100 CALM      29.94S FOG
LA CROSSE WI   FAIR      27  26  96 SE5       29.95R FOG     WCI  22
$$

  *****  SOME NATIONAL WEATHER *****

CITY           SKY/WX    TMP DP  RH WIND       PRES   REMARKS
LA GUARDIA NY  FAIR      43  28  55 NW3       30.06R
RALEIGH NC     FAIR      36  31  82 CALM      30.19F
ATLANTA GA     FAIR      44  38  79 NW6       30.24R
NEW ORLEANS LA FAIR      53  51  93 SE5       30.17F
OKLAHOMA CITY  FAIR      53  51  93 S16       29.79S
ALBUQUERQUE NM FLURRIES  35  30  82 N3        29.86S
SALT LAKE CITY MOCLDY    27  22  81 N8        29.99R WCI  19
LOS ANGELES CA FAIR      54  26  34 NW15      30.16R
BOISE ID       CLOUDY    33  27  78 NE3       30.15R
SEATTLE WA     CLOUDY    48  35  60 S18G25    29.94F
$$

*** WEATHER ACROSS MANITOBA...SASKATCHEWAN AND ONTARIO ***
                ***ONTARIO***

CITY           SKY/WX    TMP DP  RH WIND       PRES   REMARKS
GERALDTON      LGT SNOW  10   5  79 NE3       29.93S
THUNDER BAY    FOG       23  21  93 VRB2      29.96R VSB 1/2
SIOUX LOOKOUT  FLURRIES  18  16  93 NE3       29.88R
TORONTO        CLOUDY    32  27  80 SW5       30.04R
BIG TROUT LK   FLURRIES  -2  -6  84 NE7       30.10R WCI -16
PICKLE LAKE    NOT AVBL
DRYDEN         FLURRIES  25  23  93 NE7       29.85R WCI  17
KENORA         FLURRIES  25  23  93 NW6       29.87R WCI  18
$$
                *** MANITOBA***

CITY           SKY/WX    TMP DP  RH WIND       PRES   REMARKS
BRANDON        CLOUDY    23  19  86 E5        29.95R WCI  17
DAUPHIN        CLOUDY    14  12  92 NE9       30.00R WCI   2
ISLAND LAKE    CLOUDY    -2  -6  84 NE8       30.09R WCI -17
PILOT MOUND      N/A     21  19  93 W2          N/A
THE PAS        FLURRIES   1  -4  78 E6        30.03S WCI -10
THOMPSON       FLURRIES   0  -6  78 E8        30.13R WCI -15
WINNIPEG       CLOUDY    19  18  93 N8        29.96R WCI   9
LYNN LAKE      FLURRIES  -4  -6  92 E8        30.05S WCI -19
CHURCHILL      LGT SNOW  -9 -15  77 N13       30.32R DRFTSNOWWCI -30
$$
                ***SASKATCHEWAN***

CITY           SKY/WX    TMP DP  RH WIND       PRES   REMARKS
ESTEVAN        CLEAR      9   7  92 SW6       29.94S WCI  -1
KINDERSLEY     PTCLDY    12  10  92 SE3       29.84S
LLOYDMINSTER   FOG       21  19  93 S6        29.84S VSB 3/4 WCI  14
PRINCE ALBERT  FLURRIES  18  14  86 E3        29.93S
REGINA         CLEAR     16  12  86 E5        29.93R WCI   9
YORKTON        CLOUDY    21  19  93 CALM      29.94R
N. BATTLEFORD  CLOUDY    23  19  86 VRB2      29.89F



USA.gov is the U.S. government's official web portal to all federal, state and local government web resources and services.